Time,TemperatureF,DewpointF,PressureIn,WindDirection,WindDirectionDegrees,WindSpeedMPH,WindSpeedGustMPH,Humidity,HourlyPrecipIn,Conditions,Clouds,dailyrainin,SoftwareType,DateUTC
2013-08-01 00:02:00,60.0,57.0,30.01,WNW,297,0.0,0.0,89,0.00,,,0.00,,2013-08-01 05:02:00,
2013-08-01 00:13:00,60.0,57.0,30.01,WNW,297,0.0,0.0,89,0.00,,,0.00,,2013-08-01 05:13:00,
2013-08-01 00:33:00,60.0,57.0,30.01,WNW,297,0.0,0.0,90,0.00,,,0.00,,2013-08-01 05:33:00,
2013-08-01 00:43:00,60.0,57.0,30.02,WNW,297,0.0,2.0,91,0.00,,,0.00,,2013-08-01 05:43:00,
2013-08-01 01:02:00,60.0,57.0,30.01,WNW,297,0.0,1.0,90,0.00,,,0.00,,2013-08-01 06:02:00,
2013-08-01 01:12:00,59.0,56.0,30.01,WNW,297,0.0,0.0,90,0.00,,,0.00,,2013-08-01 06:12:00,
2013-08-01 01:22:00,59.0,56.0,30.01,WNW,297,0.0,1.0,91,0.00,,,0.00,,2013-08-01 06:22:00,
2013-08-01 01:33:00,59.0,56.0,30.01,WNW,297,0.0,1.0,91,0.00,,,0.00,,2013-08-01 06:33:00,
2013-08-01 01:42:00,59.0,56.0,30.01,WNW,297,0.0,0.0,91,0.00,,,0.00,,2013-08-01 06:42:00,
2013-08-01 01:52:00,59.0,56.0,30.01,WNW,297,0.0,0.0,91,0.00,,,0.00,,2013-08-01 06:52:00,
2013-08-01 02:02:00,59.0,56.0,30.00,WNW,297,0.0,0.0,91,0.00,,,0.00,,2013-08-01 07:02:00,
2013-08-01 02:12:00,59.0,57.0,30.00,WNW,297,0.0,2.0,92,0.00,,,0.00,,2013-08-01 07:12:00,
2013-08-01 02:23:00,59.0,57.0,30.00,WNW,297,0.0,2.0,92,0.00,,,0.00,,2013-08-01 07:23:00,
2013-08-01 02:32:00,59.0,56.0,30.01,WNW,297,1.0,2.0,91,0.00,,,0.00,,2013-08-01 07:32:00,
2013-08-01 02:43:00,58.0,56.0,30.01,WNW,297,0.0,2.0,92,0.00,,,0.00,,2013-08-01 07:43:00,
2013-08-01 03:15:00,58.0,56.0,30.00,WNW,297,0.0,0.0,92,0.00,,,0.00,,2013-08-01 08:15:00,
2013-08-01 03:25:00,58.0,56.0,30.00,WNW,297,0.0,0.0,92,0.00,,,0.00,,2013-08-01 08:25:00,
2013-08-01 03:37:00,58.0,56.0,30.00,WNW,297,0.0,2.0,93,0.00,,,0.00,,2013-08-01 08:37:00,
2013-08-01 03:45:00,58.0,56.0,30.01,WNW,297,1.0,2.0,93,0.00,,,0.00,,2013-08-01 08:45:00,
2013-08-01 04:15:00,57.0,55.0,30.01,WNW,297,0.0,1.0,93,0.00,,,0.00,,2013-08-01 09:15:00,
2013-08-01 04:20:00,57.0,55.0,30.01,WNW,297,0.0,1.0,93,0.00,,,0.00,,2013-08-01 09:20:00,
2013-08-01 04:49:00,57.0,55.0,30.01,WNW,297,0.0,1.0,93,0.00,,,0.00,,2013-08-01 09:49:00,
2013-08-01 05:12:00,56.0,54.0,30.01,WNW,297,1.0,2.0,93,0.00,,,0.00,,2013-08-01 10:12:00,
2013-08-01 05:21:00,56.0,54.0,30.01,WNW,297,0.0,3.0,93,0.00,,,0.00,,2013-08-01 10:21:00,
2013-08-01 05:53:00,56.0,54.0,30.01,WNW,297,0.0,2.0,93,0.00,,,0.00,,2013-08-01 10:53:00,
2013-08-01 06:13:00,55.0,53.0,30.02,WNW,297,0.0,3.0,94,0.00,,,0.00,,2013-08-01 11:13:00,
2013-08-01 06:48:00,55.0,53.0,30.02,WNW,297,1.0,1.0,94,0.00,,,0.00,,2013-08-01 11:48:00,
2013-08-01 07:12:00,55.0,53.0,30.03,WNW,297,0.0,2.0,94,0.00,,,0.00,,2013-08-01 12:12:00,
2013-08-01 07:19:00,55.0,53.0,30.03,WNW,297,0.0,2.0,94,0.00,,,0.00,,2013-08-01 12:19:00,
2013-08-01 07:38:00,57.0,55.0,30.03,WNW,297,1.0,2.0,94,0.00,,,0.00,,2013-08-01 12:38:00,
2013-08-01 07:57:00,58.0,56.0,30.03,WNW,297,0.0,2.0,94,0.00,,,0.00,,2013-08-01 12:57:00,
2013-08-01 08:20:00,59.0,57.0,30.04,WNW,297,0.0,2.0,94,0.00,,,0.00,,2013-08-01 13:20:00,
2013-08-01 08:41:00,60.0,58.0,30.04,NW,319,3.0,6.0,93,0.00,,,0.00,,2013-08-01 13:41:00,
2013-08-01 08:49:00,62.0,58.0,30.04,WNW,286,3.0,7.0,87,0.00,,,0.00,,2013-08-01 13:49:00,
2013-08-01 09:14:00,64.0,57.0,30.04,NW,315,6.0,9.0,78,0.00,,,0.00,,2013-08-01 14:14:00,
2013-08-01 10:20:00,68.0,57.0,30.05,NNE,28,6.0,12.0,67,0.00,,,0.00,,2013-08-01 15:20:00,
2013-08-01 10:57:00,70.0,56.0,30.04,WNW,299,6.0,11.0,61,0.00,,,0.00,,2013-08-01 15:57:00,
2013-08-01 11:06:00,70.0,55.0,30.04,NNE,19,5.0,13.0,59,0.00,,,0.00,,2013-08-01 16:06:00,
2013-08-01 11:28:00,70.0,55.0,30.04,NNW,333,5.0,14.0,59,0.00,,,0.00,,2013-08-01 16:28:00,
2013-08-01 11:40:00,71.0,55.0,30.05,NW,311,10.0,11.0,57,0.00,,,0.00,,2013-08-01 16:40:00,
2013-08-01 12:13:00,71.0,56.0,30.05,WNW,300,5.0,10.0,59,0.00,,,0.00,,2013-08-01 17:13:00,
2013-08-01 12:42:00,72.0,56.0,30.04,West,275,4.0,14.0,57,0.00,,,0.00,,2013-08-01 17:42:00,
2013-08-01 12:59:00,73.0,56.0,30.04,WNW,289,5.0,12.0,55,0.00,,,0.00,,2013-08-01 17:59:00,
2013-08-01 13:13:00,72.0,54.0,30.04,WNW,299,5.0,13.0,54,0.00,,,0.00,,2013-08-01 18:13:00,
2013-08-01 13:18:00,73.0,55.0,30.04,North,5,6.0,12.0,53,0.00,,,0.00,,2013-08-01 18:18:00,
2013-08-01 13:32:00,73.0,55.0,30.04,NW,315,6.0,12.0,53,0.00,,,0.00,,2013-08-01 18:32:00,
2013-08-01 13:52:00,73.0,55.0,30.04,WNW,286,6.0,12.0,53,0.00,,,0.00,,2013-08-01 18:52:00,
2013-08-01 14:10:00,74.0,55.0,30.03,West,274,2.0,15.0,51,0.00,,,0.00,,2013-08-01 19:10:00,
2013-08-01 14:20:00,74.0,55.0,30.03,NNW,335,5.0,14.0,51,0.00,,,0.00,,2013-08-01 19:20:00,
2013-08-01 15:12:00,75.0,54.0,30.02,NW,323,0.0,13.0,48,0.00,,,0.00,,2013-08-01 20:12:00,
2013-08-01 15:18:00,75.0,53.0,30.02,WNW,292,3.0,14.0,46,0.00,,,0.00,,2013-08-01 20:18:00,
2013-08-01 15:38:00,76.0,55.0,30.02,NW,323,4.0,11.0,49,0.00,,,0.00,,2013-08-01 20:38:00,
2013-08-01 15:47:00,76.0,55.0,30.02,West,273,8.0,11.0,48,0.00,,,0.00,,2013-08-01 20:47:00,
2013-08-01 16:03:00,76.0,55.0,30.01,West,281,11.0,11.0,48,0.00,,,0.00,,2013-08-01 21:03:00,
2013-08-01 16:14:00,76.0,54.0,30.01,SW,235,5.0,15.0,47,0.00,,,0.00,,2013-08-01 21:14:00,
2013-08-01 16:26:00,76.0,55.0,30.01,WNW,302,7.0,15.0,49,0.00,,,0.00,,2013-08-01 21:26:00,
2013-08-01 16:43:00,76.0,54.0,30.00,WNW,284,4.0,9.0,47,0.00,,,0.00,,2013-08-01 21:43:00,
2013-08-01 16:53:00,76.0,54.0,30.00,NW,325,3.0,9.0,47,0.00,,,0.00,,2013-08-01 21:53:00,
2013-08-01 17:07:00,77.0,55.0,30.00,WSW,258,3.0,8.0,46,0.00,,,0.00,,2013-08-01 22:07:00,
2013-08-01 17:16:00,77.0,54.0,30.00,West,276,6.0,8.0,45,0.00,,,0.00,,2013-08-01 22:16:00,
2013-08-01 17:23:00,76.0,55.0,29.99,WNW,302,3.0,8.0,48,0.00,,,0.00,,2013-08-01 22:23:00,
2013-08-01 17:35:00,77.0,55.0,29.99,NW,324,1.0,9.0,47,0.00,,,0.00,,2013-08-01 22:35:00,
2013-08-01 17:46:00,76.0,53.0,29.98,WNW,283,4.0,12.0,45,0.00,,,0.00,,2013-08-01 22:46:00,
2013-08-01 18:08:00,77.0,55.0,29.97,WNW,297,0.0,11.0,46,0.00,,,0.00,,2013-08-01 23:08:00,
2013-08-01 18:17:00,77.0,54.0,29.97,WNW,291,4.0,11.0,45,0.00,,,0.00,,2013-08-01 23:17:00,
2013-08-01 18:32:00,76.0,54.0,29.98,West,273,3.0,8.0,47,0.00,,,0.00,,2013-08-01 23:32:00,
2013-08-01 18:47:00,76.0,55.0,29.98,NW,311,1.0,6.0,49,0.00,,,0.00,,2013-08-01 23:47:00,
2013-08-01 19:08:00,76.0,57.0,29.98,West,271,1.0,4.0,52,0.00,,,0.00,,2013-08-02 00:08:00,
2013-08-01 19:17:00,76.0,57.0,29.98,West,271,1.0,4.0,52,0.00,,,0.00,,2013-08-02 00:17:00,
2013-08-01 19:37:00,74.0,56.0,29.98,WSW,250,0.0,4.0,54,0.00,,,0.00,,2013-08-02 00:37:00,
2013-08-01 19:48:00,74.0,57.0,29.98,WSW,250,0.0,2.0,56,0.00,,,0.00,,2013-08-02 00:48:00,
2013-08-01 19:55:00,74.0,59.0,29.98,WSW,250,0.0,1.0,59,0.00,,,0.00,,2013-08-02 00:55:00,
2013-08-01 20:03:00,73.0,59.0,29.98,WSW,250,0.0,1.0,61,0.00,,,0.00,,2013-08-02 01:03:00,
2013-08-01 20:16:00,72.0,59.0,29.98,WSW,250,0.0,1.0,64,0.00,,,0.00,,2013-08-02 01:16:00,
2013-08-01 20:38:00,70.0,59.0,29.97,WSW,250,0.0,0.0,68,0.00,,,0.00,,2013-08-02 01:38:00,
2013-08-01 20:46:00,69.0,58.0,29.97,WSW,250,0.0,1.0,69,0.00,,,0.00,,2013-08-02 01:46:00,
2013-08-01 20:55:00,69.0,59.0,29.97,WSW,250,0.0,0.0,71,0.00,,,0.00,,2013-08-02 01:55:00,
2013-08-01 21:08:00,68.0,59.0,29.97,WSW,250,0.0,0.0,73,0.00,,,0.00,,2013-08-02 02:08:00,
2013-08-01 21:27:00,66.0,57.0,29.98,WSW,250,0.0,0.0,74,0.00,,,0.00,,2013-08-02 02:27:00,
2013-08-01 21:34:00,65.0,57.0,29.98,WSW,250,0.0,0.0,76,0.00,,,0.00,,2013-08-02 02:34:00,
2013-08-01 21:45:00,65.0,58.0,29.98,WSW,250,0.0,0.0,79,0.00,,,0.00,,2013-08-02 02:45:00,
2013-08-01 21:52:00,65.0,58.0,29.98,WSW,250,0.0,0.0,78,0.00,,,0.00,,2013-08-02 02:52:00,
2013-08-01 22:08:00,64.0,58.0,29.98,WSW,250,0.0,0.0,80,0.00,,,0.00,,2013-08-02 03:08:00,
2013-08-01 22:23:00,64.0,57.0,29.98,WSW,250,0.0,0.0,79,0.00,,,0.00,,2013-08-02 03:23:00,
2013-08-01 22:56:00,63.0,58.0,29.97,WSW,250,0.0,0.0,84,0.00,,,0.00,,2013-08-02 03:56:00,
2013-08-01 23:02:00,62.0,57.0,29.97,WSW,250,0.0,0.0,84,0.00,,,0.00,,2013-08-02 04:02:00,
2013-08-01 23:22:00,62.0,57.0,29.96,WSW,250,0.0,2.0,84,0.00,,,0.00,,2013-08-02 04:22:00,
2013-08-01 23:33:00,62.0,57.0,29.95,WSW,250,0.0,2.0,84,0.00,,,0.00,,2013-08-02 04:33:00,
2013-08-01 23:43:00,62.0,57.0,29.96,WSW,250,0.0,0.0,84,0.00,,,0.00,,2013-08-02 04:43:00,